Flag for Italy

Past Weather in Porto turistico Marsala, Italy — Yesterday and Last 2 Weeks

Currently: 88 °F. Sunny. (Weather station: Palermo / Punta Raisi, Italy). See more current weather

Past Weather in Porto turistico Marsala — Graph

°F

Porto turistico Marsala Temperature Yesterday

Maximum temperature yesterday: 84 °F (at 12:20 pm)
Minimum temperature yesterday: 75 °F (at 3:50 am)
Average temperature yesterday: 81 °F

High & Low Weather Summary for the Past Weeks

 TemperatureHumidityPressure
High100 °F (Jun 27, 6:20 pm)94% (Jun 25, 12:50 am)30.04 "Hg (Jun 25, 12:50 am)
Low70 °F (Jun 21, 4:50 am)13% (Jun 28, 8:20 am)29.83 "Hg (Jun 30, 3:20 am)
Average81 °F70%29.95 "Hg
* Reported Jun 20 3:20 pm — Jul 5 3:50 pm, Porto turistico Marsala. Weather by CustomWeather, © 2022

Note: Actual official high and low records may vary slightly from our data, if they occured in-between our weather recording intervals... More about our weather records

Porto turistico Marsala Weather History for the Previous 24 Hours

Scroll right to see more
 ConditionsComfort  
Time TempWeatherWind HumidityBarometerVisibility
3:50 pm
Tue, Jul 5
86 °FSunny.5 mph66%30.01 "Hg10 mi
3:20 pm86 °FSunny.8 mph66%30.01 "Hg10 mi
2:50 pm84 °FSunny.13 mph74%30.01 "Hg10 mi
2:20 pm84 °FSunny.12 mph74%29.98 "Hg10 mi
1:50 pm84 °FSunny.10 mph74%29.98 "Hg10 mi
1:20 pm84 °FSunny.10 mph74%29.98 "Hg10 mi
12:50 pm84 °FSunny.8 mph74%30.01 "Hg10 mi
12:20 pm82 °FSunny.9 mph79%30.01 "Hg10 mi
11:50 am84 °FSunny.7 mph74%30.01 "Hg10 mi
11:20 am84 °FSunny.8 mph74%30.04 "Hg10 mi
10:50 am81 °FSunny.7 mph89%30.04 "Hg10 mi
10:20 am81 °FSunny.7 mph89%30.01 "Hg10 mi
9:20 am81 °FSunny.8 mph89%30.01 "Hg10 mi
8:50 am81 °FSunny.10 mph84%30.01 "Hg10 mi
8:20 am79 °FSunny.8 mph89%30.01 "Hg10 mi
7:50 am79 °FSunny.6 mph89%30.01 "Hg10 mi
6:50 am77 °FSunny.2 mph89%29.98 "Hg10 mi
6:20 am75 °FSunny.2 mph94%29.98 "Hg10 mi
5:50 am75 °FSunny.3 mph94%29.98 "Hg10 mi
5:20 am77 °FClear.5 mph89%29.98 "Hg10 mi
4:50 am77 °FClear.3 mph89%29.98 "Hg10 mi
4:20 am77 °FClear.6 mph89%29.98 "Hg10 mi
3:50 am77 °FClear.3 mph89%29.98 "Hg10 mi
3:20 am77 °FClear.7 mph83%29.98 "Hg10 mi
2:50 am77 °FClear.6 mph89%29.98 "Hg10 mi
1:20 am79 °FClear.3 mph89%30.01 "Hg10 mi
12:50 am79 °FClear.5 mph89%30.01 "Hg10 mi
12:20 am79 °FClear.5 mph89%30.01 "Hg10 mi
11:50 pm
Mon, Jul 4
79 °FPassing clouds.5 mph89%29.98 "HgN/A
11:20 pm79 °FClear.2 mph89%29.98 "Hg10 mi
10:50 pm79 °FPassing clouds.3 mph89%29.98 "HgN/A
10:20 pm81 °FClear.6 mph84%29.98 "Hg10 mi
9:50 pm81 °FClear.5 mph84%29.95 "Hg10 mi
9:20 pm81 °FClear.8 mph89%29.95 "Hg10 mi
8:20 pm82 °FSunny.13 mph79%29.95 "Hg10 mi
7:50 pm82 °FSunny.14 mph84%29.95 "Hg10 mi
7:20 pm82 °FSunny.16 mph84%29.95 "Hg10 mi
6:50 pm84 °FSunny.17 mph74%29.92 "Hg10 mi
6:20 pm84 °FSunny.17 mph74%29.95 "Hg10 mi
5:50 pm84 °FSunny.17 mph74%29.95 "Hg10 mi
5:20 pm82 °FSunny.17 mph79%29.95 "Hg10 mi
Weather by CustomWeather, © 2022

See weather overview